Regional Weather Roundup
Issued by NWS Goodland, KS

Home | Current Version | Previous Version | Graphics & Text | Print | Product List | Glossary On
Versions: 1 2 3 4 5 6 7 8 9 10 11 12 13 14 15 16 17 18 19 20 21 22 23 24 25 26 27 28 29 30 31 32 33 34 35 36 37 38 39 40 41 42 43 44 45 46 47 48 49 50
000
ASUS43 KGLD 292359
RWRGLD

GOODLAND FORECAST AREA HOURLY WEATHER ROUNDUP
NATIONAL WEATHER SERVICE GOODLAND KS
600 PM MDT FRI JUL 29 2016

...OFFICIAL OBSERVATIONS...

CITY           SKY/WX    TMP DP  RH WIND       PRES   REMARKS
GOODLAND KS    SUNNY     78  61  55 SE8       30.08F
HILL CITY KS   SUNNY     85  61  44 E5        30.01S
IMPERIAL NEB   MOSUNNY   80  59  48 SE6       30.06S
MCCOOK NEB     SUNNY     85  56  37 E6        30.02F
AKRON CO       CLOUDY    77  58  51 E17G23    30.11R
BURLINGTON CO  SUNNY     81  57  43 SE18      30.09F
LIMON CO       CLOUDY    74  57  55 SE16      30.14F
$$

...UNOFFICIAL OBSERVATIONS...

CITY           SKY/WX    TMP DP  RH WIND       PRES   REMARKS
LENORA KS        N/A     85  32  15 MISG        N/A
NORTON KS      SUNNY     84  50  30 N3        30.01S
SHARON SPRINGS   N/A     82  64  54 SE9         N/A
KIT CARSON CO    N/A     80  60  49 MISG        N/A
YUMA CO          N/A     77  57  50 SE14        N/A
$$



USA.gov is the U.S. government's official web portal to all federal, state and local government web resources and services.